• Processing (Info)

  • MPEC 2014-L23 : 2014 LN9

    The following Minor Planet Electronic Circular may be linked-to from your own Web pages, but must not otherwise be redistributed electronically.

    A form allowing access to any MPEC is at the bottom of this page.


    Read MPEC 2014-L22 Read MPEC 2014-L24


    M.P.E.C. 2014-L23                                Issued 2014 June 4, 15:01 UT
    
         The Minor Planet Electronic Circulars contain information on unusual
             minor planets and routine data on comets.  They are published
       on behalf of Commission 20 of the International Astronomical Union by the
              Minor Planet Center, Smithsonian Astrophysical Observatory,
                              Cambridge, MA 02138, U.S.A.
    
                 Prepared using the Tamkin Foundation Computer Network
    
                                  MPC@CFA.HARVARD.EDU
                URL http://www.minorplanetcenter.net/    ISSN 1523-6714
    
                                       2014 LN9
    
    Observations:
         K14L09N* C2014 06 01.28855 14 20 32.88 +20 20 53.2          21.0 VqEL023G96
         K14L09N  C2014 06 01.29327 14 20 31.42 +20 21 07.4          21.1 VqEL023G96
         K14L09N  C2014 06 01.29801 14 20 29.95 +20 21 21.2          21.0 VqEL023G96
         K14L09N  C2014 06 01.30274 14 20 28.49 +20 21 35.1          20.9 VqEL023G96
         K14L09N  C2014 06 01.39660 14 19 59.67 +20 26 09.5          20.7 VqEL023G96
         K14L09N  C2014 06 01.39727 14 19 59.32 +20 26 11.5          20.7 VqEL023G96
         K14L09N  C2014 06 01.39794 14 19 59.12 +20 26 14.3          20.7 VqEL023G96
         K14L09N KC2014 06 01.89299 14 17 28.71 +20 50 34.1          21.0  qEL023104
         K14L09N KC2014 06 01.89865 14 17 27.432+20 50 54.73         21.2 RtEL023J04
         K14L09N KC2014 06 01.90227 14 17 25.87 +20 51 01.4          21.0  qEL023104
         K14L09N KC2014 06 01.90327 14 17 26.009+20 51 08.48         20.9 RtEL023J04
         K14L09N KC2014 06 01.90789 14 17 24.543+20 51 22.01         20.6 RtEL023J04
         K14L09N KC2014 06 01.91203 14 17 22.80 +20 51 29.8          21.3  qEL023104
         K14L09N KC2014 06 02.10849414 16 22.70 +21 01 09.1          21.0 VuEL023H21
         K14L09N KC2014 06 02.11691014 16 20.07 +21 01 34.1          21.4 VuEL023H21
         K14L09N KC2014 06 02.12535214 16 17.40 +21 01 59.0          21.2 VuEL023H21
         K14L09N  C2014 06 03.18193 14 10 47.83 +21 53 31.3          21.6 VqEL023G96
         K14L09N  C2014 06 03.18278 14 10 47.59 +21 53 33.6          21.5 VqEL023G96
         K14L09N  C2014 06 03.18362 14 10 47.32 +21 53 35.8          21.3 VqEL023G96
         K14L09N  C2014 06 03.18446 14 10 47.02 +21 53 38.8          21.1 VqEL023G96
         K14L09N  C2014 06 03.18531 14 10 46.73 +21 53 41.6          21.3 VqEL023G96
         K14L09N  C2014 06 03.18741 14 10 46.08 +21 53 46.9          21.0 VqEL023G96
         K14L09N  C2014 06 03.18826 14 10 45.84 +21 53 49.1          20.9 VqEL023G96
         K14L09N  C2014 06 03.18910 14 10 45.55 +21 53 52.3          21.4 VqEL023G96
         K14L09N  C2014 06 03.18995 14 10 45.27 +21 53 54.6          21.6 VqEL023G96
         K14L09N  C2014 06 03.19079 14 10 45.00 +21 53 57.2          21.3 VqEL023G96
         K14L09N  C2014 06 04.16584 14 05 34.93 +22 40 57.2          20.4 VqEL023G96
         K14L09N  C2014 06 04.16668 14 05 34.64 +22 41 00.3          20.8 VqEL023G96
         K14L09N  C2014 06 04.16753 14 05 34.34 +22 41 02.8          21.0 VqEL023G96
         K14L09N  C2014 06 04.16837 14 05 34.08 +22 41 05.3          21.2 VqEL023G96
         K14L09N  C2014 06 04.16922 14 05 33.82 +22 41 07.4          21.1 VqEL023G96
    
    Observer details:
    104 San Marcello Pistoiese.  Observer P. Bacci.  Measurers P. Bacci, L. Tesi,
        G. Fagioli.  0.60-m f/4 reflector + CCD.
    G96 Mt. Lemmon Survey.  Observers R. J. Sanders, R. E. Hill.  Measurers
        E. J. Christensen, A. R. Gibbs, A. D. Grauer, R. E. Hill, J. A. Johnson,
        R. A. Kowalski, S. M. Larson, R. J. Sanders, F. C. Shelly.  1.5-m
        reflector + CCD.
    H21 Astronomical Research Observatory, Westfield.  Observer R. Holmes.
        Measurers T. Vorobjov, L. Buzzi, S. Foglia, T. Linder.  0.81-m f/4.0
        astrograph + CCD.
    J04 ESA Optical Ground Station, Tenerife.  Observer P. Ruiz.  Measurers
        D. Koschny, M. Busch, A. Knoefel, M. Micheli, E. Schwab.  1.0-m f/4.4
        reflector + CCD.
    
    Orbital elements:
    2014 LN9                                                 Earth MOID = 0.2508 AU
    Epoch 2014 May 23.0 TT = JDT 2456800.5                  MPC
    M 340.18384              (2000.0)            P               Q
    n   0.26897823     Peri.  168.20585     +0.97738117     -0.16896532
    a   2.3767927      Node   202.74850     +0.15722660     +0.98275330
    e   0.8708831      Incl.   19.20307     +0.14144205     +0.07514430
    P   3.66           H   20.4           G   0.15           U   9
    Residuals in seconds of arc
    140601 G96  0.1+  0.2+    140601 J04  0.0   0.2-    140603 G96  0.4+  0.3-
    140601 G96  0.1+  0.5+    140601 104  0.4+  0.0     140603 G96  0.2+  0.4+
    140601 G96  0.0   0.4+    140602 H21  0.3-  0.0     140603 G96  0.1+  0.3+
    140601 G96  0.0   0.4+    140602 H21  0.1-  0.3+    140603 G96  0.1+  0.4+
    140601 G96  1.3+  0.4-    140602 H21  0.2-  0.3+    140604 G96  0.2+  0.5-
    140601 G96  0.8-  0.3-    140603 G96  0.2-  0.3+    140604 G96  0.0   0.2+
    140601 G96  0.7-  0.5+    140603 G96  0.2+  0.1+    140604 G96  0.3-  0.3+
    140601 104  0.2-  0.3+    140603 G96  0.2+  0.1-    140604 G96  0.1-  0.3+
    140601 J04  0.2-  0.2-    140603 G96  0.2-  0.4+    140604 G96  0.2+  0.0
    140601 104  0.6+  0.3+    140603 G96  0.4-  0.8+
    140601 J04  0.2+  0.1-    140603 G96  0.0   0.0
    
    Ephemeris:
    2014 LN9                 a,e,i = 2.38, 0.87, 19                  q = 0.3069
    Date    TT    R. A. (2000) Decl.     Delta      r     Elong.  Phase     V
    2014 05 05    15 54 37.9 +00 29 01   0.7707  1.7425   156.5    13.3    21.8
    ...
    2014 05 20    15 13 48.9 +10 21 15   0.5886  1.5455   148.8    19.9    21.2
    ...
    2014 05 28    14 41 12.5 +16 47 56   0.5248  1.4334   135.0    30.0    21.1
    ...
    2014 06 03    14 11 45.2 +21 44 42   0.4929  1.3458   122.7    39.4    21.1
    2014 06 04    14 06 28.1 +22 33 01   0.4888  1.3308   120.5    41.1    21.1
    2014 06 05    14 01 05.2 +23 20 44   0.4851  1.3158   118.3    42.7    21.1
    ...
    2014 06 11    13 26 58.7 +27 49 33   0.4693  1.2236   105.0    53.3    21.1
    ...
    2014 06 19    12 37 48.9 +32 43 11   0.4630  1.0947    87.1    68.0    21.3
    ...
    2014 07 04    10 57 28.3 +37 53 35   0.4812  0.8322    54.2    97.9    21.9
    
    A. U. Tomatic                (C) Copyright 2014 MPC           M.P.E.C. 2014-L23
    

    Read MPEC 2014-L22 Read MPEC 2014-L24


    MPEC number:

    Enter an MPEC number in one of the following forms:

    • 1997-B01 (the full form)
    • J97B01 (the packed version of the full form)
    • B01 (the abbreviated form)